EW4169 Weather Reports


Display with metric or nautical units.
time (UTC)temp
F
wind
direction
speed
MPH
gust
MPH
rain 1hr
in
rain 24hr
in
rain mn
in
humidity
%
barometer
mb
20260507114504 43 301 3.0 7.0 0.00 0.19 0.00 72 1012.1
20260507111540 41 282 2.0 4.0 0.00 0.19 0.00 80 1012.0
20260507110104 40 281 0.0 1.0 0.00 0.21 0.00 83 1011.9
20260507104538 37 281 1.0 3.0 0.00 0.21 0.00 87 1011.7
20260507103003 35 288 0.0 1.0 0.00 0.21 0.00 90 1011.5
20260507101524 34 288 2.0 2.0 0.00 0.21 0.00 90 1011.6
20260507100112 34 288 1.0 2.0 0.00 0.22 0.00 90 1011.5
20260507100002 34 288 1.0 2.0 0.00 0.22 0.00 90 1011.5
20260507094524 35 288 0.0 1.0 0.00 0.22 0.00 90 1011.4
20260507093100 35 288 0.0 3.0 0.00 0.22 0.00 87 1011.4
20260507093002 35 288 0.0 3.0 0.00 0.22 0.00 87 1011.4
20260507091540 36 288 0.0 3.0 0.00 0.22 0.00 86 1011.3
20260507090057 37 288 1.0 3.0 0.00 0.22 0.00 84 1011.3
20260507084539 39 288 0.0 2.0 0.00 0.22 0.00 79 1011.2
20260507083056 40 288 1.0 2.0 0.00 0.22 0.00 76 1011.3
20260507081544 41 288 0.0 1.0 0.00 0.22 0.00 70 1011.3
20260507080054 43 288 0.0 3.0 0.00 0.22 0.00 67 1011.2
20260507074546 44 288 1.0 3.0 0.00 0.22 0.00 65 1011.2
20260507073020 44 293 1.0 6.0 0.00 0.22 0.00 63 1011.3
20260507071540 45 279 2.0 8.0 0.00 0.22 0.00 62 1011.2
20260507070014 45 279 2.0 8.0 0.00 0.22 0.00 62 1011.0
20260507064544 45 259 3.0 7.0 0.00 0.22 0.00 63 1011.1
20260507063019 45 276 2.0 6.0 0.00 0.22 0.00 65 1011.3
20260507061543 45 257 1.0 4.0 0.00 0.22 0.00 63 1011.3
20260507060016 45 279 3.0 7.0 0.00 0.22 0.00 61 1011.6
20260507054537 45 288 2.0 7.0 0.00 0.22 0.00 63 1011.5
20260507053012 45 276 2.0 4.0 0.00 0.22 0.00 65 1011.4
20260507051532 46 265 6.0 9.0 0.00 0.22 0.00 62 1011.6
20260507050012 46 311 4.0 7.0 0.00 0.22 0.00 61 1011.5
20260507044536 46 293 4.0 7.0 0.00 0.22 0.00 58 1011.5
20260507043016 47 272 0.0 6.0 0.00 0.22 0.00 58 1011.3
20260507041547 47 236 2.0 7.0 0.00 0.22 0.00 55 1011.4
20260507040010 47 294 5.0 10.0 0.00 0.22 0.22 58 1011.0
20260507034557 47 295 5.0 8.0 0.00 0.22 0.22 55 1011.3
20260507033106 47 278 2.0 7.0 0.00 0.22 0.22 58 1011.3
20260507031520 47 281 3.0 9.0 0.00 0.22 0.22 58 1011.1
20260507030016 48 286 4.0 9.0 0.00 0.22 0.22 67 1010.8
20260507024555 48 308 3.0 8.0 0.00 0.22 0.22 69 1010.7
20260507023032 49 309 5.0 13.0 0.00 0.22 0.22 68 1010.6
20260507021558 49 285 7.0 17.0 0.00 0.22 0.22 68 1010.4
20260507020034 49 314 7.0 12.0 0.00 0.22 0.22 79 1010.3
20260507014510 50 275 4.0 6.0 0.00 0.22 0.22 81 1010.5
20260507013058 50 250 3.0 7.0 0.00 0.22 0.22 81 1010.5
20260507011508 50 257 2.0 3.0 0.00 0.22 0.22 84 1010.6
20260507010052 50 279 0.0 4.0 0.00 0.22 0.22 84 1010.5
20260507004506 50 267 2.0 3.0 0.00 0.22 0.22 84 1010.3
20260507003026 50 277 1.0 4.0 0.00 0.22 0.22 84 1010.4
20260507001612 50 287 3.0 5.0 0.00 0.22 0.22 84 1009.8
20260507001501 50 288 3.0 5.0 0.00 0.22 0.22 83 1009.8
20260507000042 50 257 2.0 6.0 0.00 0.22 0.22 83 1009.7
20260506234608 51 291 2.0 11.0 0.00 0.22 0.22 83 1009.3
20260506234502 51 291 3.0 11.0 0.00 0.22 0.22 83 1009.3
20260506233042 51 270 4.0 8.0 0.00 0.22 0.22 83 1009.0
20260506231510 51 290 5.0 9.0 0.00 0.22 0.22 82 1008.8
20260506230044 51 278 2.0 7.0 0.00 0.22 0.22 83 1008.7
20260506224620 51 274 5.0 11.0 0.00 0.22 0.22 83 1009.0
20260506224509 51 276 5.0 14.0 0.00 0.22 0.22 84 1009.0
20260506223038 51 288 7.0 16.0 0.00 0.22 0.22 85 1008.9
20260506221514 52 295 8.0 14.0 0.00 0.22 0.22 84 1008.2
20260506220036 53 278 5.0 8.0 0.00 0.22 0.22 83 1008.1
20260506214514 53 280 6.0 12.0 0.00 0.22 0.22 83 1008.1
20260506213046 53 302 6.0 14.0 0.00 0.22 0.22 83 1007.7
20260506211600 54 272 5.0 12.0 0.00 0.22 0.22 85 1007.5
20260506211507 54 287 7.0 12.0 0.00 0.22 0.22 84 1007.5
20260506210036 54 287 7.0 10.0 0.00 0.23 0.22 84 1007.0
20260506204509 55 240 6.0 11.0 0.00 0.23 0.22 86 1006.9
20260506203030 54 231 6.0 15.0 0.00 0.23 0.22 87 1006.8
20260506201513 54 274 10.0 16.0 0.00 0.23 0.22 91 1006.7
20260506200024 54 241 4.0 10.0 0.00 0.23 0.22 96 1006.6
20260506194601 54 198 5.0 11.0 0.00 0.23 0.22 97 1006.3
20260506194502 54 229 6.0 11.0 0.00 0.23 0.22 97 1006.3
20260506193024 53 225 7.0 15.0 0.00 0.23 0.22 97 1006.2
20260506191558 54 245 10.0 17.0 0.00 0.23 0.22 97 1006.1
20260506190022 56 258 4.0 11.0 0.00 0.23 0.22 97 1005.8
20260506184556 56 269 6.0 10.0 0.00 0.23 0.22 97 1005.6
20260506183101 56 255 4.0 8.0 0.00 0.23 0.22 98 1005.6
20260506181522 56 245 4.0 8.0 0.01 0.23 0.22 98 1005.5
20260506180042 56 269 4.0 8.0 0.01 0.23 0.22 98 1005.5
20260506174518 56 247 7.0 10.0 0.02 0.23 0.22 98 1005.4
20260506173047 56 276 4.0 11.0 0.02 0.23 0.22 98 1005.4
20260506171523 57 212 3.0 6.0 0.01 0.22 0.21 98 1005.3
20260506170006 57 238 1.0 5.0 0.01 0.21 0.21 98 1005.0
20260506164522 57 163 0.0 5.0 0.01 0.21 0.20 98 1004.9
20260506163016 57 219 1.0 5.0 0.01 0.21 0.20 98 1004.9
20260506161555 57 132 2.0 6.0 0.02 0.21 0.20 98 1005.0
20260506160031 56 187 4.0 8.0 0.01 0.20 0.19 98 1004.9
20260506154554 56 140 2.0 5.0 0.01 0.20 0.19 98 1004.9
20260506153019 56 199 0.0 1.0 0.01 0.20 0.19 98 1004.8
20260506151554 55 224 0.0 1.0 0.00 0.19 0.18 98 1004.8
20260506150014 55 169 0.0 0.0 0.00 0.19 0.18 98 1004.7
20260506144551 55 131 0.0 0.0 0.00 0.19 0.18 98 1004.5
20260506143016 55 229 0.0 1.0 0.01 0.19 0.18 97 1004.5
20260506141552 54 202 0.0 3.0 0.02 0.19 0.18 97 1004.5
20260506140015 54 153 0.0 3.0 0.03 0.19 0.18 97 1004.5
20260506134549 54 152 2.0 5.0 0.03 0.19 0.18 97 1004.3
20260506133013 55 157 3.0 4.0 0.03 0.18 0.17 97 1004.5
20260506131600 54 198 0.0 4.0 0.02 0.17 0.16 97 1004.7
20260506130039 55 150 1.0 2.0 0.03 0.16 0.15 97 1004.7
20260506124547 54 145 1.0 3.0 0.05 0.16 0.15 97 1004.4
20260506123011 54 133 1.0 2.0 0.07 0.15 0.14 97 1004.7
20260506121548 54 94 0.0 0.0 0.10 0.15 0.14 97 1004.5
20260506120016 54 94 0.0 0.0 0.09 0.13 0.12 97 1004.9